Skip Page Navigation
NASA JPL Caltech
NASA Logo - Jet Propulsion Laboratory + View the NASA Portal
+ Center for Near-Earth Object Studies
JPL Home Earth Solar System Stars & Galaxies Technology
JPL Solar System Dynamics
BODIES ORBITS EPHEMERIDES TOOLS PHYSICAL DATA DISCOVERY FAQ SITE MAP
IMPORTANT: The SSD Announcement email list is now available. Major changes are coming in the near future, including possible hostname and/or URL changes. To be notified of such changes, subscribe to this email list.

Please visit this page for more details.


JPL Small-Body Database Browser
Search: [ help ]  
351834 (2006 QC95)
Classification: Main-belt Asteroid          SPK-ID: 2351834
Ephemeris | Orbit Diagram | Orbital Elements | Mission Design | Physical Parameters | Discovery Circumstances | Close-Approach Data ]

[ show orbit diagram ]
Orbital Elements at Epoch 2458600.5 (2019-Apr-27.0) TDB
Reference: JPL 8 (heliocentric ecliptic J2000)
 Element Value Uncertainty (1-sigma)   Units 
e .1474902593459773 6.12e-08  
a 2.855171047048151 4.5103e-08 au
q 2.434061128841893 1.779e-07 au
i 16.05107243632156 6.793e-06 deg
node 139.4119397253776 2.86e-05 deg
peri 204.6743720968358 4.3403e-05 deg
M 221.0550728050149 3.7543e-05 deg
tp 2459280.621991980114
(2021-Mar-07.12199198)
0.00019564 TDB
period 1762.165212186875
4.82
4.1756e-05
1.143e-07
d
yr
n .2042941249267055 4.8409e-09 deg/d
Q 3.276280965254408 5.1756e-08 au
  Orbit Determination Parameters
   # obs. used (total)      108  
   data-arc span      6477 days (17.73 yr)  
   first obs. used      2001-08-14  
   last obs. used      2019-05-09  
   planetary ephem.      DE431  
   SB-pert. ephem.      SB431-N16  
   condition code      0  
   norm. resid. RMS      .69854  
   source      ORB  
   producer      Otto Matic  
   solution date      2019-May-30 09:27:07  

Additional Information
 Earth MOID = 1.43213 au 
 Jupiter MOID = 2.1202 au 
 T_jup = 3.231 
[ show covariance matrix ]

Ephemeris | Orbit Diagram | Orbital Elements | Mission Design | Physical Parameters | Discovery Circumstances | Close-Approach Data ]

Physical Parameter Table
Parameter Symbol Value Units Sigma Reference Notes
absolute magnitude H 16.1   n/a MPO434219  

351834 (2006 QC95)          Discovered 2006-Aug-16 by NEAT at Palomar
Reference: 20130127/Numbers.arcLast Updated: 2013-01-31

[ show close-approach data ]
Alternate Designations
 2006 QC95 = 2001 PE54 
Ephemeris | Orbit Diagram | Orbital Elements | Mission Design | Physical Parameters | Discovery Circumstances | Close-Approach Data ]
ABOUT SSD CREDITS/AWARDS PRIVACY/COPYRIGHT GLOSSARY LINKS
FirstGov
(server date/time)  
NASA Home Page
Site Manager:   Ryan S. Park
Webmaster  Alan B. Chamberlin